Regional Weather Roundup
Issued by NWS

Home | Current Version | Previous Version | Text Only | Print | Product List | Glossary Off
Versions: 1 2 3 4 5 6 7 8 9 10 11 12 13 14 15 16 17 18 19 20 21 22 23 24 25 26 27 28 29 30 31 32 33 34 35 36 37 38 39 40 41 42 43 44 45 46 47 48 49 50

000
ASUS43 KLOT 091808
RWRIL

ILLINOIS REGIONAL WEATHER ROUNDUP
NATIONAL WEATHER SERVICE CHICAGO/ROMEOVILLE IL
1200 PM CST TUE FEB 09 2016

NOTE: "FAIR" INDICATES FEW OR NO CLOUDS BELOW 12,000 FEET WITH NO
SIGNIFICANT WEATHER AND/OR OBSTRUCTIONS TO VISIBILITY.

* THESE STATIONS ARE NOT UNDER NWS QUALITY CONTROL. THEY ALSO MAY NOT
  REPORT WEATHER SUCH AS PRECIPITATION OR FOG.

ILZ001-002-007-009-015-016-024-091900-
NORTHWEST ILLINOIS

CITY           SKY/WX    TMP DP  RH WIND       PRES   REMARKS
MOLINE         CLOUDY    18   6  59 NW17      29.98S WCI   3
6HR MIN TEMP:  13; 6HR MAX TEMP:  18; 6HR PCP: TRACE;

STERLING*      PTSUNNY   18   7  62 NW16G23   29.90S WCI   3
SAVANNA*       MOSUNNY   17   6  61 NW16      29.95S WCI   2
$$

ILZ003-004-008-010-011-017-018-091900-
NORTH CENTRAL ILLINOIS

CITY           SKY/WX    TMP DP  RH WIND       PRES   REMARKS
ROCKFORD       CLOUDY    16   6  65 NW16      29.90F WCI   1
6HR MIN TEMP:  13; 6HR MAX TEMP:  16; 6HR PCP: TRACE;

FREEPORT*      CLOUDY    15   7  71 NW16G22   29.91F WCI  -1
ROCHELLE*      LGT SNOW  16   9  75 NW15      29.89S WCI   1
DE KALB*       CLOUDY    15   7  71 NW13      29.86S WCI   1
$$

ILZ005-006-012>014-019>023-091900-
NORTHEAST ILLINOIS

CITY           SKY/WX    TMP DP  RH WIND       PRES   REMARKS
CHICAGO-OHARE  PTSUNNY   18   8  65 NW13      29.83S WCI   5
6HR MIN TEMP:  15; 6HR MAX TEMP:  18; 6HR PCP: TRACE;

CHICAGO-MIDWAY FLURRIES  19   9  65 NW12G22   29.84S WCI   7
6HR MIN TEMP:  17; 6HR MAX TEMP:  19; 6HR PCP: TRACE;

AURORA         CLOUDY    18   8  65 N15       29.86F WCI   4
6HR MIN TEMP:  15; 6HR MAX TEMP:  18; 6HR PCP: TRACE;

LANSING*       CLOUDY    20  12  71 NW12G18   29.83S WCI   8
WAUKEGAN       PTSUNNY   17   7  64 NW14G20   29.82S WCI   3
6HR MIN TEMP:  13; 6HR MAX TEMP:  18; 6HR PCP: TRACE;

DUPAGE AIRPORT MIX PCPN  16   7  67 NW17      29.84F WCI   0
6HR MIN TEMP:  14; 6HR MAX TEMP:  16; 6HR PCP: TRACE;

WHEELING       CLOUDY    18   8  65 NW10G20   29.84F WCI   6
6HR MIN TEMP:  14; 6HR MAX TEMP:  18; 6HR PCP: TRACE;

MORRIS*        LGT SNOW  17   9  71 NW14G21   29.86S WCI   3
NORTHERLY ISL    N/A     21  11  65 W12         N/A  WCI   9
$$

LMZ740>746-091900-
SOUTHERN LAKE MICHIGAN

STATION/POSITION SKY/WX   TEMP    WIND        PRES    VSBY  WAVE
                          AIR SEA DIR/SP/G                  HT/PER
                          (F)     (DEG/KT/KT) (MB)    (MI)  (FT/S)
HARRISON CRIB              18     300/ 14/ 18   N/A
BURNHAM HARBOR             20     280/ 11/ 15   N/A
CALUMET HARBOR             18     290/ 11/ 16 1009.7R
BURNS HARBOR               20     320/ 18     1009.8R
MICHIGAN CITY              21     280/ 18/ 22   N/A
$$

ILZ025>027-034>036-040-047-049-050-058-095>099-091900-
WEST-CENTRAL ILLINOIS

CITY           SKY/WX    TMP DP  RH WIND       PRES   REMARKS
QUINCY         LGT SNOW  17  10  74 NW22G30   30.03S WCI   0
MACOMB*        MOSUNNY   18   9  69 NW24G30   30.02S WCI   0
JACKSONVILLE*  CLOUDY    20  11  67 NW15      29.99S WCI   6
PITTSFIELD*    CLOUDY    19   9  66 NW16      30.03S WCI   4
$$

ILZ028>032-037-038-041>044-048-051>054-059>061-091900-
CENTRAL ILLINOIS

CITY           SKY/WX    TMP DP  RH WIND       PRES   REMARKS
PONTIAC        LGT SNOW  18  13  79 NW18      29.89F WCI   3
BLOOMINGTON    LGT SNOW  17  11  77 NW18      29.90S WCI   1
DECATUR        LGT SNOW  19  10  68 NW22G28   29.92S WCI   2
PEORIA         CLOUDY    18   7  62 NW10G20   29.95F WCI   6
6HR MIN TEMP:  14; 6HR MAX TEMP:  18; 6HR PCP:  0.01;

LACON*         CLOUDY    17   8  67 NW14G21   29.93S WCI   3
LINCOLN*       PTSUNNY   20  10  66 NW10G20   29.94S WCI   9
SPRINGFIELD    LGT SNOW  19  11  70 NW17G25   29.96F WCI   4
6HR MIN TEMP:  17; 6HR MAX TEMP:  19; 6HR PCP: TRACE;

TAYLORVILLE    CLOUDY    19  10  68 NW18G25   29.95F WCI   4
$$

ILZ033-039-045-046-055>057-062-063-091900-
EAST-CENTRAL ILLINOIS

CITY           SKY/WX    TMP DP  RH WIND       PRES   REMARKS
CHAMPAIGN      LGT SNOW  19  12  74 NW18      29.88S WCI   4
RANTOUL*       LGT SNOW  20  14  77 NW21      29.87S WCI   4
MATTOON        LGT SNOW  19  11  70 NW22      29.89S WCI   2
$$

ILZ079-100>102-091900-
SOUTHWEST ILLINOIS

CITY           SKY/WX    TMP DP  RH WIND       PRES   REMARKS
ALTON          FLURRIES  19  10  68 NW17G26   30.01S WCI   4
BELLEVILLE     LGT SNOW  19  14  79 NW15G24   30.00S WCI   5
CAHOKIA*       FLURRIES  21  10  62 NW20G26   30.04R WCI   6
SPARTA*        CLOUDY    20  11  70 NW12      30.02S WCI   7
$$

ILZ064>066-069>071-074>076-080>082-084>086-088>090-092>094-091900-
SOUTH-CENTRAL ILLINOIS

CITY           SKY/WX    TMP DP  RH WIND       PRES   REMARKS
CARBONDALE     LGT SNOW  21  14  74 NW16G24   30.01R WCI   7
6HR MIN TEMP:  20; 6HR MAX TEMP:  22; 6HR PCP: TRACE;

CAIRO*         CLOUDY    24  18  77 NW14G23   30.02R WCI  12
EFFINGHAM*     LGT SNOW  19  14  80 W16G24    29.95S WCI   5
MARION         FLURRIES  23  12  63 NW17      30.01R WCI   9
MT. VERNON     CLOUDY    19   9  63 NW8G18    29.98S WCI   9
CENTRALIA*     LGT SNOW  21  14  73 NW16G25   29.98R WCI   7
SALEM*         LGT SNOW  21  11  66 NW16G25   29.97R WCI   7
METROPOLIS*    LGT SNOW  23  18  82 NW8       30.00S WCI  14
$$

ILZ067-068-072-073-078-083-087-091-091900-
SOUTHEAST ILLINOIS

CITY           SKY/WX    TMP DP  RH WIND       PRES   REMARKS
LAWRENCEVILLE  LGT SNOW  21  15  78 W15       29.92S WCI   8
FLORA*         CLOUDY    23  13  66 NW18G24   29.96R WCI   8
FAIRFIELD*     FLURRIES  22  15  74 W9        29.95R WCI  11
HARRISBURG*    CLOUDY    22  13  69 W20G28    29.99R WCI   7
ROBINSON*      FLURRIES  20  13  74 NW13G23   29.93S WCI   8
CARMI*         LGT SNOW  22  17  81 NW16      29.96S WCI   8
$$

ABBREVIATIONS USED IN REMARKS
   TC - TEMPERATURE IN CELSIUS
  WCI - WIND CHILL INDEX
   HX - HEAT INDEX
  VSB - VISIBILITY
$$




USA.gov is the U.S. government's official web portal to all federal, state and local government web resources and services.